FW1793 Weather Reports


time (UTC)temp
C
wind
direction
speed
KPH
gust
KPH
rain 1hr
cm
rain 24hr
cm
rain mn
cm
humidity
%
barometer
mb
20260510120522 8 267 14.5 20.9 0.00 0.05 0.00 64 1012.7
20260510115516 8 250 8.0 14.5 0.00 0.05 0.00 66 1012.6
20260510114527 7 268 14.5 22.5 0.00 0.05 0.00 66 1012.5
20260510113522 8 238 8.0 14.5 0.00 0.05 0.00 67 1012.2
20260510112519 8 236 9.7 14.5 0.00 0.05 0.00 66 1012.1
20260510111528 7 239 4.8 9.7 0.00 0.05 0.00 67 1011.8
20260510110525 7 231 4.8 9.7 0.00 0.05 0.00 71 1011.7
20260510105519 6 253 8.0 14.5 0.00 0.05 0.00 75 1011.5
20260510104529 6 254 4.8 12.9 0.00 0.05 0.00 76 1011.3
20260510103523 5 284 4.8 9.7 0.00 0.05 0.00 77 1011.0
20260510102519 5 261 6.4 12.9 0.00 0.05 0.00 76 1010.9
20260510101528 5 219 6.4 11.3 0.00 0.05 0.00 74 1010.7
20260510100524 5 192 1.6 3.2 0.00 0.05 0.00 74 1010.5
20260510095518 5 198 3.2 6.4 0.00 0.05 0.00 73 1010.3
20260510094548 5 290 6.4 12.9 0.00 0.05 0.00 72 1010.1
20260510093521 5 274 8.0 12.9 0.00 0.05 0.00 71 1010.0
20260510092529 5 213 1.6 6.4 0.00 0.05 0.00 70 1009.9
20260510091523 6 249 1.6 4.8 0.00 0.05 0.00 69 1009.8
20260510090559 6 299 4.8 11.3 0.00 0.05 0.00 68 1009.6
20260510085527 6 210 4.8 12.9 0.00 0.05 0.00 67 1009.5
20260510084521 6 272 4.8 9.7 0.00 0.05 0.00 66 1009.4
20260510083517 7 250 6.4 12.9 0.00 0.05 0.00 65 1009.3
20260510082526 7 238 6.4 8.0 0.00 0.05 0.00 63 1009.3
20260510081540 7 225 4.8 11.3 0.00 0.05 0.00 60 1009.2
20260510080529 7 275 8.0 14.5 0.00 0.05 0.00 59 1009.2
20260510075543 7 259 8.0 24.1 0.00 0.05 0.00 59 1009.0
20260510074518 8 260 14.5 24.1 0.00 0.05 0.00 60 1009.0
20260510073526 8 280 11.3 20.9 0.00 0.05 0.00 62 1008.8
20260510072521 8 237 4.8 8.0 0.00 0.05 0.00 63 1008.6
20260510071533 8 261 11.3 16.1 0.00 0.05 0.00 66 1008.6
20260510070526 8 262 6.4 11.3 0.00 0.05 0.00 70 1008.5
20260510065519 8 230 8.0 12.9 0.00 0.05 0.00 71 1008.3
20260510064529 8 226 6.4 12.9 0.00 0.05 0.00 72 1008.4
20260510063522 8 225 6.4 12.9 0.00 0.05 0.00 72 1008.2
20260510062516 8 238 4.8 6.4 0.00 0.05 0.00 72 1008.0
20260510061526 8 219 4.8 6.4 0.00 0.05 0.00 73 1007.9
20260510060519 9 238 4.8 6.4 0.00 0.05 0.00 74 1007.8
20260510055531 9 211 4.8 8.0 0.00 0.05 0.00 76 1007.7
20260510054521 9 223 6.4 11.3 0.00 0.05 0.00 79 1007.7
20260510053539 9 235 4.8 11.3 0.00 0.05 0.00 80 1007.4
20260510052528 10 243 6.4 9.7 0.00 0.05 0.00 82 1007.5
20260510051523 10 238 4.8 6.4 0.00 0.05 0.00 82 1007.4
20260510050530 10 243 6.4 11.3 0.00 0.05 0.00 83 1007.3
20260510045524 10 225 4.8 11.3 0.00 0.05 0.00 84 1007.0
20260510044518 10 229 6.4 8.0 0.00 0.05 0.00 87 1007.0
20260510043528 10 223 4.8 11.3 0.00 0.05 0.00 88 1006.8
20260510042524 10 219 8.0 12.9 0.00 0.05 0.00 89 1006.8
20260510041518 10 220 4.8 11.3 0.00 0.05 0.00 88 1006.7
20260510040530 10 230 3.2 6.4 0.00 0.05 0.00 88 1006.7
20260510035522 10 227 4.8 6.4 0.00 0.05 0.05 89 1006.6
20260510034516 10 243 6.4 12.9 0.00 0.05 0.05 88 1006.5
20260510033526 10 235 4.8 9.7 0.00 0.05 0.05 88 1006.2
20260510032542 10 231 8.0 12.9 0.00 0.05 0.05 88 1006.3
20260510031530 10 219 6.4 9.7 0.00 0.05 0.05 87 1006.0
20260510030525 10 214 6.4 8.0 0.00 0.05 0.05 87 1005.8
20260510025537 10 225 4.8 6.4 0.00 0.05 0.05 86 1005.9
20260510024526 11 211 6.4 9.7 0.00 0.05 0.05 86 1005.9
20260510023533 11 225 4.8 9.7 0.00 0.05 0.05 85 1005.7
20260510022526 11 231 4.8 6.4 0.00 0.05 0.05 85 1005.7
20260510021602 11 237 6.4 9.7 0.00 0.05 0.05 85 1005.6
20260510020528 11 239 8.0 12.9 0.00 0.05 0.05 86 1005.8
20260510015525 11 231 6.4 11.3 0.00 0.05 0.05 86 1005.7
20260510014518 12 199 4.8 9.7 0.00 0.05 0.05 86 1005.5
20260510013526 12 209 11.3 17.7 0.00 0.05 0.05 86 1005.4
20260510012521 12 189 11.3 16.1 0.00 0.05 0.05 86 1005.2
20260510011529 12 220 12.9 17.7 0.00 0.05 0.05 83 1004.9
20260510010525 12 206 11.3 17.7 0.00 0.05 0.05 82 1005.0
20260510005518 12 210 9.7 16.1 0.00 0.05 0.05 83 1004.7
20260510004527 12 176 8.0 16.1 0.03 0.05 0.05 82 1004.4
20260510003522 12 177 1.6 6.4 0.05 0.05 0.05 81 1004.4
20260510002530 12 156 1.6 3.2 0.05 0.05 0.05 80 1004.2
20260510001526 13 189 6.4 9.7 0.05 0.05 0.05 78 1004.0
20260510000518 13 190 9.7 17.7 0.05 0.05 0.05 76 1004.0
20260509235528 13 207 17.7 27.4 0.05 0.05 0.05 73 1004.1
20260509234521 13 228 6.4 12.9 0.03 0.03 0.03 70 1004.0
20260509233552 15 180 9.7 14.5 0.00 0.00 0.00 65 1003.8
20260509232525 15 160 9.7 16.1 0.00 0.00 0.00 64 1003.7
20260509231540 15 158 9.7 16.1 0.00 0.00 0.00 63 1003.8
20260509230526 15 182 8.0 12.9 0.00 0.00 0.00 63 1003.9
20260509225521 15 172 8.0 12.9 0.00 0.00 0.00 63 1004.0
20260509224531 15 157 9.7 17.7 0.00 0.00 0.00 62 1004.0
20260509223526 15 135 9.7 16.1 0.00 0.00 0.00 62 1004.1
20260509222519 15 153 8.0 14.5 0.00 0.00 0.00 63 1004.3
20260509221529 15 149 9.7 12.9 0.00 0.00 0.00 63 1004.6
20260509220525 15 180 12.9 17.7 0.00 0.00 0.00 62 1005.1
20260509215519 15 172 11.3 17.7 0.00 0.00 0.00 62 1004.8
20260509214529 15 161 12.9 17.7 0.00 0.00 0.00 62 1004.8
20260509213523 15 180 12.9 17.7 0.00 0.00 0.00 62 1004.8
20260509212532 15 183 11.3 14.5 0.00 0.00 0.00 61 1004.8
20260509211525 15 162 11.3 17.7 0.00 0.00 0.00 61 1004.7
20260509210520 15 180 12.9 22.5 0.00 0.00 0.00 60 1004.7
20260509205525 15 182 11.3 17.7 0.00 0.00 0.00 60 1004.6
20260509204520 15 199 12.9 17.7 0.00 0.00 0.00 60 1004.9
20260509203528 16 195 17.7 24.1 0.00 0.00 0.00 58 1004.7
20260509202524 16 196 17.7 24.1 0.00 0.00 0.00 57 1004.6
20260509201532 16 185 14.5 22.5 0.00 0.00 0.00 56 1004.7
20260509200525 16 197 16.1 24.1 0.00 0.00 0.00 54 1005.0
20260509195519 17 194 22.5 33.8 0.00 0.00 0.00 50 1004.9
20260509194527 17 167 19.3 30.6 0.00 0.00 0.00 51 1005.0
20260509193523 18 184 20.9 30.6 0.00 0.00 0.00 46 1005.1
20260509192531 17 194 17.7 24.1 0.00 0.00 0.00 45 1005.3
20260509191524 17 185 17.7 24.1 0.00 0.00 0.00 43 1005.3
20260509190518 18 197 19.3 27.4 0.00 0.00 0.00 42 1005.4
20260509185528 18 194 22.5 29.0 0.00 0.00 0.00 41 1005.5
20260509184521 18 171 19.3 33.8 0.00 0.00 0.00 41 1005.6
20260509183516 18 151 19.3 27.4 0.00 0.00 0.00 40 1005.7
20260509182528 18 176 22.5 37.0 0.00 0.00 0.00 37 1005.8
20260509181542 18 178 14.5 27.4 0.00 0.00 0.00 34 1005.9
20260509180518 17 190 17.7 29.0 0.00 0.00 0.00 33 1005.9
20260509175527 18 146 12.9 25.7 0.00 0.00 0.00 31 1006.0
20260509174522 18 192 17.7 27.4 0.00 0.00 0.00 31 1006.1
20260509173517 18 190 17.7 32.2 0.00 0.00 0.00 30 1006.2
20260509172527 18 177 12.9 22.5 0.00 0.00 0.00 33 1006.3
20260509171522 18 144 17.7 27.4 0.00 0.00 0.00 32 1006.5
20260509170519 17 163 19.3 25.7 0.00 0.00 0.00 31 1006.8
20260509165527 18 153 14.5 24.1 0.00 0.00 0.00 33 1006.8
20260509164522 17 176 12.9 24.1 0.00 0.00 0.00 35 1006.9
20260509163516 17 176 17.7 27.4 0.00 0.00 0.00 33 1007.0
20260509162545 17 177 16.1 27.4 0.00 0.00 0.00 33 1007.1
20260509161520 17 177 17.7 27.4 0.00 0.00 0.00 35 1007.1
20260509160532 17 201 17.7 27.4 0.00 0.00 0.00 39 1007.3
20260509155524 17 166 14.5 24.1 0.00 0.00 0.00 39 1007.5
20260509154539 17 185 17.7 24.1 0.00 0.00 0.00 39 1007.7
20260509153528 17 178 17.7 24.1 0.00 0.00 0.00 37 1007.8
20260509152519 17 173 14.5 30.6 0.00 0.00 0.00 41 1007.8
20260509151529 16 165 14.5 20.9 0.00 0.00 0.00 41 1008.0
20260509150525 16 158 16.1 20.9 0.00 0.00 0.00 42 1008.2
20260509145532 16 178 14.5 20.9 0.00 0.00 0.00 42 1008.3
20260509144546 16 172 12.9 22.5 0.00 0.00 0.00 43 1008.3
20260509143601 16 204 16.1 24.1 0.00 0.00 0.00 43 1008.5
20260509142531 15 175 11.3 19.3 0.00 0.00 0.00 44 1008.6
20260509141523 15 161 9.7 19.3 0.00 0.00 0.00 45 1008.5
20260509140531 15 156 11.3 19.3 0.00 0.00 0.00 46 1008.7
20260509135526 14 121 11.3 16.1 0.00 0.00 0.00 47 1008.9
20260509134521 14 120 9.7 12.9 0.00 0.00 0.00 47 1008.9
20260509133530 14 171 9.7 16.1 0.00 0.00 0.00 50 1008.9
20260509132526 13 139 8.0 12.9 0.00 0.00 0.00 51 1009.0
20260509131518 12 141 9.7 12.9 0.00 0.00 0.00 56 1009.0
20260509130529 11 141 9.7 14.5 0.00 0.00 0.00 60 1009.2
20260509125525 11 157 9.7 14.5 0.00 0.00 0.00 62 1009.1
20260509124518 10 131 6.4 9.7 0.00 0.00 0.00 65 1009.3
20260509123528 10 162 9.7 16.1 0.00 0.00 0.00 72 1009.4
20260509122525 10 144 3.2 6.4 0.00 0.00 0.00 83 1009.5
20260509121520 8 75 3.2 6.4 0.00 0.00 0.00 91 1009.7